Wind_Speed
25 25 25 24 24 24 25 26 27 27 28 28 28 28 28 28 28 28 28 29 29 30 30 30 31 31 31 32 32 33 33 33 34 34 35 36 36 36 37 37 38 38
25 26 25 25 24 24 25 26 27 27 28 28 29 29 29 29 29 29 30 30 30 31 31 31 32 32 33 33 34 34 34 35 35 35 36 37 37 38 38 39 39 39
26 26 26 26 25 25 26 27 28 28 29 29 30 31 31 31 31 31 31 32 32 33 34 34 34 34 35 35 35 36 36 37 37 37 38 38 39 39 40 40 40 41
27 28 27 27 27 27 27 28 29 30 30 30 31 32 32 33 33 33 33 34 34 35 36 36 37 37 37 37 37 38 38 39 40 40 40 40 40 41 41 42 42 42
29 29 29 29 29 29 29 30 31 31 31 31 31 32 33 34 34 34 35 36 36 37 37 38 38 39 39 39 39 39 40 41 41 42 42 42 42 42 43 43 44 44
29 29 29 30 30 31 31 31 32 33 33 33 33 33 34 34 35 36 36 37 37 38 39 39 40 40 40 41 41 41 41 42 42 43 43 44 44 44 44 45 45 46
27 28 29 30 31 32 32 33 33 33 34 34 34 34 34 34 35 36 36 37 38 39 40 40 41 42 42 43 43 43 44 44 44 44 44 45 46 46 46 47 47 47
25 26 27 29 30 31 31 32 32 33 33 33 33 33 33 34 35 36 37 38 39 40 41 41 42 43 44 45 45 46 46 46 46 47 46 46 47 47 48 49 49 49
28 28 29 29 30 30 31 31 32 33 33 33 33 33 34 35 36 37 38 39 40 41 41 42 43 44 45 46 47 48 48 48 49 49 49 48 48 49 49 50 51 51
32 32 33 32 32 33 33 33 33 34 34 35 35 35 36 37 38 39 39 40 40 41 41 42 43 45 46 47 48 49 49 50 50 51 51 51 51 50 51 51 52 53
35 36 36 36 35 35 35 35 35 36 36 37 37 37 38 40 40 40 40 40 40 40 41 42 43 45 46 48 49 50 50 51 51 52 53 54 53 53 53 53 54 54
39 40 40 40 38 38 37 37 38 38 38 38 38 38 40 40 40 39 39 39 39 39 39 40 42 43 45 47 48 50 50 51 52 53 54 55 56 56 55 55 55 55
42 42 43 43 42 41 40 40 40 40 40 39 39 39 40 39 39 38 38 38 38 37 36 37 39 42 44 45 47 48 49 50 51 52 53 55 57 57 58 57 57 57
41 42 43 45 45 44 43 42 42 41 40 40 40 40 40 39 38 38 37 37 36 35 34 36 38 40 42 43 44 46 47 48 49 50 52 54 56 57 59 59 60 60
44 45 44 44 46 46 46 44 43 42 42 41 41 40 40 40 39 38 37 36 36 35 35 37 38 40 41 42 43 45 46 47 48 49 51 52 54 55 57 59 60 61
48 49 47 46 47 49 49 47 45 44 43 42 41 41 41 40 39 39 38 37 36 36 37 39 40 42 43 44 45 46 47 48 49 50 51 52 53 54 56 57 59 60
49 51 50 50 50 51 52 50 47 45 44 42 41 41 41 41 40 40 38 38 38 38 39 40 42 44 45 47 48 49 50 50 51 52 53 53 54 54 55 56 58 59
51 53 52 52 53 54 54 52 48 46 44 43 42 42 42 41 41 40 39 39 40 40 41 42 43 45 46 47 48 50 51 53 54 55 55 55 56 56 56 57 58 58
52 54 53 53 55 55 52 51 49 46 44 43 42 42 42 42 42 42 41 41 41 42 42 43 44 45 46 47 48 50 52 54 56 57 58 58 58 58 58 58 59 59
53 54 55 55 56 55 52 50 48 46 44 43 43 42 43 43 43 43 43 43 43 43 44 44 46 47 49 50 51 53 54 56 58 59 60 61 60 60 60 60 60 60
52 53 55 56 57 56 53 49 46 45 44 44 43 44 44 45 45 45 45 44 45 45 46 46 48 50 51 53 55 56 58 60 61 62 63 63 62 62 62 62 61 61
53 53 55 57 56 56 53 47 44 44 44 44 44 45 46 47 47 46 46 46 47 47 48 49 50 52 54 56 58 60 62 64 65 65 64 63 62 62 62 61 61 61
53 53 56 58 59 58 53 45 41 42 44 44 46 47 47 47 47 47 47 48 48 49 50 50 52 54 56 59 61 63 65 66 66 65 63 61 60 59 59 58 57 58
53 55 57 57 58 58 51 42 39 42 43 45 46 47 47 47 47 48 48 48 49 50 51 52 53 56 59 62 64 65 66 66 64 62 60 58 56 55 54 53 54 55
54 56 57 56 57 54 46 39 39 42 43 44 45 46 46 47 48 48 48 49 50 50 51 53 56 59 62 64 65 66 65 63 61 59 56 54 53 52 52 53 54 55
55 56 56 55 54 48 41 37 40 41 42 44 44 45 47 48 48 49 48 49 50 51 53 56 58 61 63 64 64 63 61 60 58 56 54 52 51 52 53 54 55 56
Wind_Direction
258 258 259 259 259 258 258 258 258 258 258 258 258 257 257 257 257 256 257 257 259 260 261 262 262 261 260 259 259 259 259 258 256 256 256 257 257 257 256 257 257 258
258 257 258 258 258 258 258 258 257 256 256 256 256 255 255 255 255 255 256 256 257 258 259 259 260 261 262 262 261 260 260 260 259 258 258 258 258 258 259 258 258 258
257 257 257 257 257 258 258 258 258 257 256 256 256 256 256 257 257 257 258 258 259 259 259 259 259 259 260 261 262 262 262 262 261 260 259 259 258 258 259 260 259 259
257 257 257 257 258 258 258 259 260 260 259 259 259 259 259 259 259 260 260 261 261 262 262 262 261 261 260 260 260 261 261 261 261 261 261 261 260 259 258 258 259 259
259 259 260 260 261 261 262 262 262 262 262 262 262 262 262 262 262 263 263 264 264 264 264 264 264 264 263 262 261 260 260 260 260 260 260 261 261 260 260 259 258 259
262 263 263 264 264 265 265 265 265 265 266 266 266 266 266 267 267 267 267 267 267 267 267 266 266 265 265 264 263 262 261 260 260 259 259 260 261 261 261 260 260 260
264 265 266 266 267 266 266 266 266 267 267 268 269 269 270 271 271 272 272 271 271 270 270 270 269 269 267 266 266 265 264 262 261 260 260 260 260 260 260 261 261 261
265 267 267 267 267 267 266 266 266 267 268 269 270 272 274 275 276 276 276 275 275 274 273 273 273 272 271 270 269 268 267 265 264 262 261 261 260 260 260 260 260 260
270 270 270 269 268 267 267 267 267 267 268 269 272 275 278 280 280 280 279 278 278 277 277 276 275 274 273 272 271 270 269 268 267 266 264 263 262 261 261 261 260 260
275 274 272 270 269 267 267 267 267 268 268 270 273 278 281 283 283 282 281 280 279 279 279 278 277 276 274 273 272 271 271 270 269 268 267 266 264 263 262 262 262 261
278 277 273 270 268 267 267 267 268 269 270 271 274 279 282 283 283 282 281 281 281 281 281 280 279 278 277 275 274 273 272 271 271 270 269 268 266 265 264 263 262 262
279 279 275 270 267 266 266 266 268 269 271 272 275 279 281 281 281 280 280 281 281 281 281 282 281 280 279 278 277 276 275 274 273 272 271 270 268 267 265 264 263 262
276 278 275 271 267 266 266 266 267 268 270 272 275 278 279 278 278 278 280 280 280 280 281 281 281 281 281 281 281 280 280 279 277 275 274 272 271 269 268 266 264 263
274 276 275 271 269 268 267 265 265 266 268 271 274 275 275 275 275 277 278 278 278 277 278 279 281 282 283 284 284 284 284 283 281 280 278 276 274 273 271 269 267 265
272 275 275 273 272 271 268 264 263 265 266 269 271 272 272 272 273 275 275 275 275 274 274 276 279 282 284 286 287 287 287 285 284 282 281 279 277 275 274 272 270 268
269 271 273 274 274 273 269 264 263 264 265 267 267 268 269 270 272 273 273 273 274 273 272 274 278 281 284 286 287 288 289 288 286 284 282 280 278 276 275 274 272 270
267 270 272 274 275 275 269 263 262 263 263 264 264 265 267 268 270 271 272 273 273 272 270 272 277 280 283 285 287 288 288 288 288 286 283 281 279 277 275 274 273 272
266 268 270 271 273 274 269 261 259 261 261 261 262 263 265 267 269 270 271 272 273 271 270 272 276 280 282 285 287 289 289 289 289 288 285 283 280 278 276 274 272 271
264 265 268 269 271 271 266 260 258 259 259 259 260 261 264 266 268 269 269 271 272 271 270 272 277 280 282 285 288 290 291 291 291 290 288 285 282 279 277 275 273 272
263 265 266 268 270 268 263 259 258 257 257 258 258 260 262 265 267 267 267 269 271 271 271 273 277 280 283 286 288 290 291 292 292 291 289 286 283 280 278 275 274 272
262 264 265 267 268 265 260 257 256 255 256 257 258 259 262 263 265 266 267 268 270 271 272 274 277 281 284 286 288 289 290 291 292 292 290 287 284 281 279 277 274 272
259 260 262 264 265 262 258 254 254 254 256 257 258 260 261 263 265 266 267 269 271 272 273 275 278 281 284 286 287 288 289 290 291 291 288 285 282 280 279 277 275 272
256 258 259 260 262 262 257 252 252 256 257 258 259 261 262 264 266 268 269 271 272 273 275 276 279 282 284 286 287 287 288 289 289 288 285 282 280 279 278 276 275 273
254 257 259 258 260 260 253 249 255 259 258 258 260 262 264 266 267 269 271 273 274 274 276 278 280 283 285 286 286 287 288 288 287 284 282 281 280 278 277 276 275 274
253 255 257 259 261 256 249 252 262 263 260 260 262 264 266 268 269 271 274 275 276 276 278 280 283 284 285 286 286 287 287 287 285 283 282 280 279 278 277 277 276 275
250 251 254 259 260 254 253 263 269 265 263 264 265 266 268 270 272 273 275 277 278 279 281 283 284 284 285 286 286 287 287 286 285 284 282 280 279 279 279 278 277 275
Height
5734 5734 5735 5735 5736 5737 5737 5737 5738 5739 5740 5741 5742 5742 5743 5744 5744 5745 5745 5745 5745 5745 5745 5746 5746 5747 5747 5748 5748 5749 5750 5750 5751 5752 5753 5753 5754 5755 5755 5756 5757 5758
5731 5731 5732 5732 5733 5734 5734 5734 5735 5736 5737 5738 5738 5739 5740 5740 5741 5741 5742 5742 5742 5742 5742 5742 5743 5743 5743 5744 5744 5745 5745 5746 5747 5748 5748 5748 5749 5750 5750 5751 5752 5753
5728 5728 5729 5729 5730 5731 5731 5732 5732 5733 5733 5734 5735 5735 5736 5737 5737 5738 5738 5738 5739 5739 5739 5739 5739 5740 5740 5740 5740 5740 5741 5741 5742 5743 5743 5744 5745 5745 5746 5747 5747 5748
5725 5725 5725 5726 5726 5727 5728 5728 5728 5729 5729 5730 5731 5731 5732 5732 5733 5733 5734 5734 5734 5734 5735 5735 5735 5735 5736 5736 5736 5736 5736 5737 5737 5738 5738 5739 5740 5740 5741 5742 5742 5743
5721 5721 5722 5722 5723 5723 5724 5724 5724 5724 5725 5726 5726 5727 5727 5727 5728 5728 5729 5729 5730 5730 5730 5730 5730 5731 5731 5731 5731 5732 5732 5732 5732 5733 5733 5733 5734 5735 5736 5737 5737 5738
5717 5718 5718 5718 5719 5719 5720 5720 5720 5720 5720 5721 5721 5722 5722 5723 5723 5723 5724 5724 5724 5724 5725 5725 5725 5726 5726 5726 5726 5726 5727 5727 5727 5728 5728 5728 5729 5729 5730 5730 5731 5732
5713 5714 5714 5714 5715 5715 5715 5715 5716 5716 5716 5716 5717 5717 5717 5718 5718 5718 5718 5719 5719 5719 5719 5719 5719 5720 5720 5720 5720 5721 5721 5721 5722 5723 5723 5723 5724 5724 5724 5724 5725 5725
5709 5710 5710 5710 5711 5711 5711 5711 5711 5711 5712 5712 5712 5712 5712 5712 5713 5713 5713 5713 5713 5713 5714 5714 5714 5713 5713 5713 5714 5714 5714 5715 5716 5716 5717 5718 5718 5718 5718 5718 5718 5719
5706 5706 5706 5706 5706 5707 5707 5707 5707 5707 5707 5707 5707 5707 5707 5707 5707 5707 5707 5707 5708 5708 5708 5708 5707 5707 5707 5707 5707 5707 5708 5708 5708 5709 5710 5710 5711 5711 5711 5711 5712 5712
5701 5701 5702 5702 5702 5702 5702 5702 5702 5702 5703 5702 5702 5702 5702 5702 5702 5702 5702 5702 5702 5702 5702 5701 5701 5701 5700 5701 5701 5701 5701 5701 5701 5701 5702 5702 5703 5703 5704 5704 5704 5705
5697 5697 5697 5696 5696 5697 5697 5697 5697 5697 5697 5697 5697 5697 5697 5696 5696 5696 5696 5696 5696 5696 5695 5695 5694 5694 5694 5694 5694 5694 5694 5695 5694 5694 5694 5694 5695 5695 5696 5696 5696 5697
5691 5692 5692 5691 5691 5691 5691 5692 5692 5692 5692 5692 5692 5692 5691 5691 5691 5691 5691 5691 5690 5690 5689 5689 5688 5688 5687 5687 5687 5687 5688 5688 5688 5688 5687 5687 5687 5687 5687 5688 5688 5689
5686 5686 5686 5686 5686 5686 5686 5686 5686 5686 5686 5686 5686 5686 5686 5686 5685 5685 5685 5685 5685 5684 5684 5683 5683 5682 5682 5681 5681 5681 5681 5681 5681 5681 5680 5680 5679 5679 5679 5679 5680 5680
5681 5680 5680 5680 5680 5680 5681 5680 5680 5680 5681 5681 5681 5681 5681 5680 5680 5680 5680 5679 5679 5679 5678 5678 5677 5677 5676 5676 5676 5676 5675 5675 5674 5674 5673 5673 5672 5671 5671 5671 5671 5671
5675 5674 5674 5674 5675 5675 5675 5675 5675 5675 5675 5675 5675 5676 5675 5675 5675 5675 5674 5674 5674 5673 5673 5672 5672 5671 5671 5671 5670 5670 5669 5669 5668 5667 5667 5666 5665 5664 5663 5662 5662 5662
5668 5668 5668 5669 5669 5669 5669 5669 5669 5669 5669 5669 5670 5670 5670 5670 5670 5669 5669 5669 5668 5668 5668 5667 5666 5666 5665 5665 5664 5663 5663 5663 5662 5661 5660 5659 5658 5657 5656 5655 5654 5653
5663 5662 5662 5662 5662 5662 5663 5663 5663 5663 5663 5663 5663 5664 5664 5665 5664 5664 5664 5664 5663 5663 5662 5661 5661 5660 5659 5659 5658 5657 5656 5656 5655 5654 5653 5652 5651 5650 5649 5648 5646 5645
5657 5656 5656 5656 5655 5655 5656 5656 5657 5657 5657 5657 5657 5658 5658 5659 5658 5658 5658 5658 5657 5657 5656 5656 5655 5654 5653 5652 5651 5650 5649 5648 5648 5647 5645 5644 5643 5642 5641 5640 5639 5638
5650 5649 5649 5649 5648 5648 5649 5650 5650 5651 5651 5651 5651 5652 5652 5652 5652 5652 5652 5652 5652 5651 5650 5650 5649 5647 5646 5645 5645 5644 5642 5641 5640 5638 5637 5636 5635 5633 5632 5631 5630 5629
5643 5642 5641 5641 5641 5642 5643 5643 5644 5645 5645 5645 5646 5646 5646 5646 5646 5646 5646 5646 5645 5645 5644 5643 5642 5640 5639 5638 5637 5636 5635 5633 5632 5630 5629 5627 5626 5624 5623 5622 5621 5620
5638 5636 5634 5634 5635 5635 5637 5637 5638 5639 5639 5639 5640 5640 5640 5640 5640 5640 5640 5639 5639 5638 5637 5636 5635 5633 5632 5631 5629 5628 5626 5625 5623 5621 5620 5618 5616 5615 5613 5612 5611 5610
5632 5631 5629 5628 5628 5630 5631 5632 5632 5633 5634 5634 5634 5634 5634 5634 5634 5634 5633 5633 5632 5631 5630 5629 5628 5626 5625 5623 5621 5619 5618 5616 5614 5612 5610 5609 5607 5605 5603 5602 5601 5600
5624 5624 5623 5622 5622 5624 5626 5627 5627 5628 5628 5628 5628 5628 5628 5628 5628 5627 5626 5626 5625 5624 5623 5622 5621 5619 5617 5615 5613 5610 5609 5607 5605 5602 5601 5599 5597 5595 5594 5593 5591 5591
5615 5616 5615 5615 5616 5618 5619 5621 5622 5623 5622 5622 5622 5622 5622 5622 5621 5621 5620 5619 5619 5617 5616 5615 5613 5611 5608 5606 5604 5601 5599 5597 5594 5592 5591 5589 5588 5586 5585 5584 5583 5582
5608 5608 5608 5609 5610 5611 5613 5615 5616 5616 5616 5616 5616 5616 5616 5616 5615 5614 5614 5613 5611 5610 5608 5607 5605 5603 5600 5597 5594 5591 5589 5586 5584 5583 5581 5580 5578 5577 5577 5575 5574 5573
5599 5600 5601 5603 5605 5607 5608 5609 5610 5610 5610 5610 5610 5610 5610 5609 5608 5608 5607 5606 5604 5602 5600 5598 5597 5595 5591 5588 5585 5582 5579 5577 5574 5573 5572 5570 5569 5568 5567 5566 5564 5563